Location: La Savane
(18.0962°N, 63.0646°W)
Time: 08:08:51
(UTC+00:00)

Cosmos-2242 - Pass Details

Date: 29 October 2020
Orbit: 592 x 616 km, 82.5° (Epoch: 28 November)

Event Time Altitude Azimuth Distance (km) Brightness Sun altitude
Rises 23:28:42 0° 198° (SSW) 2,813 6.8 -26.0°
Reaches altitude 10° 23:30:59 10° 206° (SSW) 1,914 5.9 -26.5°
Maximum altitude 23:34:57 40° 276° (W) 878 4.2 -27.4°
Enters shadow 23:36:54 25° 329° (NNW) 1,209 4.7 -27.9°
